�N����,����,�~����,�C��,���x,�C��,����,���ϕ���,�ő�u�ԕ���,�ő厞����,���˗�,�I�_���x,�n�����x,�ő啗���N��,DTYPE
"19/08/11","00:10",0.0,27.2,80.7,1001.5,264.9,0.7,1.6,342.5,0.00,23.6,28.3,"00:00:08",1
"19/08/11","00:20",0.0,27.1,80.9,1001.5,291.2,0.6,1.2,334.2,0.00,23.6,28.3,"00:15:44",1
"19/08/11","00:30",0.0,26.9,81.1,1001.0,289.1,0.6,1.1,325.8,0.00,23.4,28.3,"00:23:36",1
"19/08/11","00:40",0.0,26.8,81.7,1001.0,303.5,0.8,1.7,332.6,0.00,23.4,28.1,"00:36:48",1
"19/08/11","00:50",0.0,26.7,82.0,1001.2,294.0,0.6,1.7,327.9,0.00,23.4,28.3,"00:49:52",1
"19/08/11","01:00",0.0,26.7,82.2,1001.2,333.3,1.0,2.0,339.7,0.00,23.5,28.2,"00:52:48",1
"19/08/11","01:10",0.0,26.5,82.9,1001.0,314.1,0.6,1.1,322.0,0.00,23.4,28.2,"01:00:32",1
"19/08/11","01:20",0.0,26.4,83.5,1001.2,313.1,0.8,1.3,337.6,0.00,23.4,27.9,"01:12:16",1
"19/08/11","01:30",0.0,26.2,84.0,1001.0,281.3,0.7,1.0,259.6,0.00,23.3,27.9,"01:27:36",1
"19/08/11","01:40",0.0,26.1,84.4,1001.0,284.4,0.6,1.1,342.5,0.00,23.3,27.9,"01:39:20",1
"19/08/11","01:50",0.0,26.1,84.6,1001.2,305.5,0.8,1.7,336.1,0.00,23.3,27.8,"01:43:36",1
"19/08/11","02:00",0.0,26.1,84.5,1001.2,290.8,0.8,1.4,315.5,0.00,23.3,27.8,"01:52:56",1
"19/08/11","02:10",0.0,26.0,84.7,1001.2,279.1,0.7,1.2,337.5,0.00,23.3,27.9,"02:08:00",1
"19/08/11","02:20",0.0,26.0,84.7,1001.0,291.9,0.7,1.4,344.3,0.00,23.3,27.5,"02:19:28",1
"19/08/11","02:30",0.0,26.0,84.9,1001.5,329.0,1.2,1.9,323.8,0.00,23.3,27.6,"02:24:24",1
"19/08/11","02:40",0.0,25.9,85.1,1001.2,329.7,1.6,2.8,344.3,0.00,23.2,27.5,"02:31:28",1
"19/08/11","02:50",0.0,25.8,85.6,1001.0,330.9,1.3,2.4,338.7,0.00,23.2,27.4,"02:43:44",1
"19/08/11","03:00",0.0,25.7,85.8,1001.0,331.3,1.7,2.5,344.2,0.00,23.2,27.5,"02:52:56",1
"19/08/11","03:10",0.0,25.7,86.1,1001.0,326.2,1.7,2.7,340.5,0.00,23.2,27.5,"03:05:36",1
"19/08/11","03:20",0.0,25.6,86.2,1001.0,295.4,0.8,1.6,340.8,0.00,23.2,27.4,"03:19:04",1
"19/08/11","03:30",0.0,25.4,86.4,1000.8,288.2,0.7,1.2,259.9,0.00,23.0,27.3,"03:21:12",1
"19/08/11","03:40",0.0,25.3,87.0,1000.8,284.2,0.7,1.2,312.6,0.00,23.0,27.5,"03:30:32",1
"19/08/11","03:50",0.0,25.3,86.9,1000.8,289.3,0.7,1.1,274.2,0.00,23.0,27.4,"03:42:16",1
"19/08/11","04:00",0.0,25.2,87.7,1000.8,310.1,0.6,1.1,332.0,0.00,23.1,27.2,"03:57:44",1
"19/08/11","04:10",0.0,25.0,87.8,1000.8,309.9,0.7,1.0,325.2,0.00,22.9,27.2,"04:00:32",1
"19/08/11","04:20",0.0,24.9,88.3,1000.8,316.2,1.0,1.7,335.1,0.00,22.9,27.1,"04:14:40",1
"19/08/11","04:30",0.0,24.9,88.3,1001.0,326.7,0.8,1.3,346.8,0.00,22.9,27.1,"04:21:52",1
"19/08/11","04:40",0.0,24.7,89.1,1000.8,299.2,0.7,1.1,316.4,0.00,22.8,26.9,"04:30:48",1
"19/08/11","04:50",0.0,24.7,89.3,1000.8,286.7,0.8,1.3,264.6,0.00,22.9,26.9,"04:47:44",1
"19/08/11","05:00",0.0,24.8,89.2,1000.8,309.2,0.8,1.4,250.2,0.00,22.9,26.9,"04:52:08",1
"19/08/11","05:10",0.0,24.7,89.2,1001.0,332.2,1.1,1.7,337.5,0.00,22.8,27.0,"05:03:52",1
"19/08/11","05:20",0.0,24.6,89.8,1001.0,305.3,0.8,1.2,329.0,0.00,22.9,27.0,"05:10:40",1
"19/08/11","05:30",0.0,24.6,89.9,1001.0,287.1,0.7,1.4,314.5,0.00,22.9,26.6,"05:20:02",1
"19/08/11","05:40",0.0,24.6,90.1,1001.2,318.8,0.8,1.7,331.8,0.00,22.9,26.8,"05:30:08",1
"19/08/11","05:50",0.0,24.7,90.1,1001.5,308.7,0.8,1.4,333.7,0.00,23.0,26.6,"05:46:40",1
"19/08/11","06:00",0.0,24.5,90.0,1001.2,324.7,1.0,1.3,324.5,0.00,22.8,26.6,"05:50:08",1
"19/08/11","06:10",0.0,24.6,90.4,1001.5,307.0,0.8,1.2,332.0,0.00,23.0,26.7,"06:00:08",1
"19/08/11","06:20",0.0,24.6,90.5,1001.5,315.8,0.7,1.2,328.9,0.00,23.0,26.8,"06:16:32",1
"19/08/11","06:30",0.0,24.7,90.6,1001.5,294.6,0.7,1.1,273.5,0.00,23.1,26.5,"06:28:32",1
"19/08/11","06:40",0.0,25.1,90.5,1001.7,277.9,0.7,1.1,249.2,0.02,23.5,26.7,"06:34:16",1
"19/08/11","06:50",0.0,25.6,90.2,1001.2,319.6,1.0,1.6,336.6,0.03,23.9,26.9,"06:48:40",1
"19/08/11","07:00",0.0,26.0,88.4,1001.2,297.2,0.3,1.2,343.7,0.03,24.0,26.6,"06:50:32",1
"19/08/11","07:10",0.0,26.5,88.3,1001.2,9.4,0.2,0.6,337.0,0.06,24.4,26.7,"07:02:16",1
"19/08/11","07:20",0.0,27.6,84.6,1001.2,45.3,0.3,0.9,347.7,0.08,24.8,26.7,"07:15:44",1
"19/08/11","07:30",0.0,28.1,81.2,1001.0,40.8,0.5,1.0,41.4,0.09,24.6,26.9,"07:26:08",1
"19/08/11","07:40",0.0,28.3,80.6,1000.5,357.6,0.3,1.0,353.0,0.11,24.7,27.0,"07:39:28",1
"19/08/11","07:50",0.0,28.6,78.6,1000.8,42.7,0.1,0.9,355.2,0.13,24.6,27.2,"07:40:08",1
"19/08/11","08:00",0.0,28.9,76.3,1001.2,173.6,0.2,1.0,184.1,0.15,24.3,27.2,"07:58:48",1
"19/08/11","08:10",0.0,29.4,76.5,1001.2,218.9,0.2,0.9,1.5,0.17,24.9,27.3,"08:04:16",1
"19/08/11","08:20",0.0,29.8,73.4,1001.5,84.6,1.0,2.5,127.4,0.20,24.6,27.5,"08:18:00",1
"19/08/11","08:30",0.0,29.6,71.9,1001.7,116.8,1.1,2.6,102.1,0.23,24.0,27.8,"08:26:40",1
"19/08/11","08:40",0.0,30.4,69.0,1001.7,130.2,0.5,1.7,111.5,0.25,24.1,27.8,"08:38:24",1
"19/08/11","08:50",0.0,30.7,65.2,1001.9,95.1,1.1,2.2,89.2,0.27,23.5,28.2,"08:44:24",1
"19/08/11","09:00",0.0,30.8,66.0,1001.9,89.4,1.1,3.1,49.7,0.30,23.8,28.1,"08:51:12",1
"19/08/11","09:10",0.0,31.0,64.3,1002.2,121.8,1.0,2.2,138.2,0.32,23.5,28.2,"09:00:32",1
"19/08/11","09:20",0.0,30.9,63.2,1002.4,142.2,0.8,1.9,126.2,0.34,23.1,28.5,"09:12:48",1
"19/08/11","09:30",0.0,31.2,62.4,1002.6,98.4,1.0,2.1,60.2,0.36,23.2,28.5,"09:24:00",1
"19/08/11","09:40",0.0,31.9,60.8,1002.9,18.3,1.0,2.7,52.6,0.38,23.4,28.8,"09:30:02",1
"19/08/11","09:50",0.0,32.0,61.1,1002.6,63.2,1.2,2.8,354.2,0.40,23.6,28.7,"09:48:40",1
"19/08/11","10:00",0.0,32.5,61.5,1002.9,99.6,1.3,3.3,151.3,0.42,24.2,29.2,"09:51:28",1
"19/08/11","10:10",0.0,32.4,61.3,1002.6,65.8,1.0,2.5,337.0,0.44,24.0,29.4,"10:09:28",1
"19/08/11","10:20",0.0,32.4,62.4,1002.9,110.9,1.3,4.3,151.1,0.45,24.3,29.5,"10:10:56",1
"19/08/11","10:30",0.0,32.9,60.7,1002.6,99.6,1.1,2.6,132.3,0.47,24.3,29.8,"10:21:12",1
"19/08/11","10:40",0.0,32.7,57.3,1002.6,87.3,1.5,2.9,54.2,0.49,23.2,29.8,"10:39:28",1
"19/08/11","10:50",0.0,33.4,62.6,1002.9,102.1,0.8,2.6,46.7,0.50,25.3,30.2,"10:40:40",1
"19/08/11","11:00",0.0,33.2,59.6,1002.4,78.9,1.7,4.4,35.7,0.51,24.3,30.2,"10:55:52",1
"19/08/11","11:10",0.0,33.1,59.9,1002.6,133.9,1.3,3.1,136.3,0.51,24.3,30.3,"11:06:00",1
"19/08/11","11:20",0.0,33.1,58.0,1002.4,110.6,1.6,4.0,126.4,0.53,23.8,30.8,"11:19:44",1
"19/08/11","11:30",0.0,34.3,57.4,1002.6,144.0,1.3,2.8,149.4,0.55,24.7,30.9,"11:20:16",1
"19/08/11","11:40",0.0,34.2,56.5,1002.6,110.2,1.3,3.3,142.2,0.56,24.4,31.2,"11:34:16",1
"19/08/11","11:50",0.0,34.2,56.7,1002.4,73.5,1.0,2.2,0.8,0.57,24.4,31.5,"11:43:44",1
"19/08/11","12:00",0.0,34.2,55.6,1002.9,116.3,1.0,2.0,136.7,0.57,24.1,31.8,"11:51:36",1
"19/08/11","12:10",0.0,34.3,55.7,1002.6,91.1,1.2,4.3,14.8,0.52,24.2,32.1,"12:05:20",1
"19/08/11","12:20",0.0,34.1,56.1,1001.9,126.4,1.1,3.5,134.4,0.27,24.1,32.0,"12:17:20",1
"19/08/11","12:30",0.0,34.6,55.0,1002.4,147.1,1.5,3.7,190.8,0.56,24.3,32.2,"12:24:56",1
"19/08/11","12:40",0.0,34.8,55.8,1001.9,112.4,1.7,3.9,142.1,0.57,24.7,32.5,"12:37:28",1
"19/08/11","12:50",0.0,34.5,54.8,1002.2,102.5,1.5,3.5,99.3,0.45,24.1,32.4,"12:43:20",1
"19/08/11","13:00",0.0,34.7,53.7,1001.9,86.4,1.5,3.2,42.9,0.44,24.0,32.7,"12:59:52",1
"19/08/11","13:10",0.0,35.0,55.7,1001.5,70.5,1.3,2.7,42.3,0.33,24.9,32.5,"13:00:48",1
"19/08/11","13:20",0.0,35.1,53.3,1001.2,97.6,1.3,2.7,89.0,0.36,24.2,32.5,"13:17:04",1
"19/08/11","13:30",0.0,34.8,54.3,1001.0,108.5,1.6,3.1,126.9,0.34,24.2,32.6,"13:23:20",1
"19/08/11","13:40",0.0,35.2,54.2,1001.0,91.9,1.1,2.4,88.5,0.50,24.6,32.8,"13:35:20",1
"19/08/11","13:50",0.0,36.1,51.6,1001.2,101.1,1.5,3.2,51.3,0.45,24.6,32.8,"13:45:36",1
"19/08/11","14:00",0.0,35.4,52.4,1001.0,100.8,1.2,3.2,120.0,0.48,24.2,32.7,"13:53:04",1
"19/08/11","14:10",0.0,35.6,50.6,1001.2,82.6,1.5,3.7,53.1,0.48,23.8,32.8,"14:07:36",1
"19/08/11","14:20",0.0,35.7,48.8,1001.0,98.4,1.6,3.1,44.4,0.42,23.3,32.9,"14:14:24",1
"19/08/11","14:30",0.0,36.4,46.2,1001.0,104.8,1.2,3.5,157.3,0.51,23.0,32.8,"14:23:20",1
"19/08/11","14:40",0.0,36.5,44.4,1001.5,82.7,1.7,4.1,112.4,0.50,22.5,32.6,"14:35:20",1
"19/08/11","14:50",0.0,36.0,44.5,1001.0,80.1,2.0,5.2,86.7,0.48,22.1,32.8,"14:44:00",1
"19/08/11","15:00",0.0,36.6,43.5,1001.2,89.3,1.7,3.6,122.9,0.48,22.2,32.7,"14:50:24",1
"19/08/11","15:10",0.0,36.4,43.1,1001.0,86.3,1.5,4.0,15.3,0.45,21.9,32.7,"15:05:04",1
"19/08/11","15:20",0.0,36.4,43.8,1001.2,77.3,1.8,3.7,18.6,0.44,22.2,32.9,"15:17:44",1
"19/08/11","15:30",0.0,36.4,43.9,1001.0,86.5,1.8,3.3,40.1,0.42,22.2,32.9,"15:21:44",1
"19/08/11","15:40",0.0,36.1,45.7,1000.8,93.0,1.7,3.5,96.5,0.41,22.6,32.8,"15:38:40",1
"19/08/11","15:50",0.0,36.3,46.1,1000.5,97.4,1.5,4.1,137.3,0.39,22.9,32.9,"15:46:40",1
"19/08/11","16:00",0.0,35.1,50.0,1000.0,85.7,1.7,3.5,35.1,0.21,23.2,32.7,"15:55:44",1
"19/08/11","16:10",0.0,35.4,50.8,999.8,84.3,1.6,3.7,40.6,0.22,23.7,32.6,"16:08:00",1
"19/08/11","16:20",0.0,35.1,51.5,999.8,72.2,1.8,3.9,67.1,0.10,23.6,32.4,"16:12:32",1
"19/08/11","16:30",0.0,35.1,53.4,999.3,79.1,1.2,3.2,98.6,0.18,24.2,32.4,"16:24:56",1
"19/08/11","16:40",0.0,34.8,52.8,999.6,90.1,1.6,3.2,81.6,0.09,23.8,32.3,"16:33:04",1
"19/08/11","16:50",0.0,34.7,53.7,999.3,85.9,1.3,2.5,106.3,0.09,24.0,32.2,"16:45:28",1
"19/08/11","17:00",0.0,34.8,53.4,999.3,66.3,1.7,3.3,39.0,0.15,24.0,31.8,"16:52:16",1
"19/08/11","17:10",0.0,34.2,55.0,999.3,66.7,1.5,3.4,29.9,0.08,23.9,32.1,"17:00:56",1
"19/08/11","17:20",0.0,34.1,56.3,999.1,80.5,1.3,4.1,78.7,0.09,24.2,31.6,"17:11:20",1
"19/08/11","17:30",0.0,34.2,56.3,999.1,92.9,1.5,3.2,106.0,0.10,24.3,31.6,"17:22:32",1
"19/08/11","17:40",0.0,34.1,55.7,999.3,82.9,1.6,3.6,141.6,0.08,24.0,31.6,"17:39:04",1
"19/08/11","17:50",0.0,33.8,56.2,998.6,81.0,1.5,3.7,40.7,0.06,23.9,31.4,"17:43:04",1
"19/08/11","18:00",0.0,33.6,57.0,999.1,71.9,1.2,2.9,21.9,0.05,23.9,31.5,"17:55:52",1
"19/08/11","18:10",0.0,33.5,57.2,998.9,82.2,1.3,2.9,125.5,0.03,23.9,31.3,"18:05:52",1
"19/08/11","18:20",0.0,33.5,57.2,999.1,84.7,1.1,3.2,31.3,0.02,23.9,31.3,"18:16:48",1
"19/08/11","18:30",0.0,33.3,58.3,999.1,81.8,1.0,2.1,79.8,0.01,24.0,31.1,"18:23:12",1
"19/08/11","18:40",0.0,33.0,59.3,998.6,70.0,1.3,4.3,6.1,0.00,24.0,30.9,"18:32:24",1
"19/08/11","18:50",0.0,32.8,59.3,998.9,94.0,1.6,2.9,102.4,0.00,23.9,30.8,"18:47:52",1
"19/08/11","19:00",0.0,32.6,59.7,998.6,99.9,1.3,2.8,86.5,0.00,23.8,30.7,"18:58:48",1
"19/08/11","19:10",0.0,32.5,60.3,998.6,98.6,1.1,2.7,47.3,0.00,23.9,30.7,"19:00:02",1
"19/08/11","19:20",0.0,32.3,60.3,999.1,87.7,1.3,2.7,95.0,0.00,23.7,30.7,"19:15:20",1
"19/08/11","19:30",0.0,32.2,60.6,998.4,90.3,1.3,2.8,104.9,0.00,23.7,30.4,"19:20:32",1
"19/08/11","19:40",0.0,32.1,60.9,998.9,89.6,1.2,2.7,52.6,0.00,23.6,30.5,"19:34:00",1
"19/08/11","19:50",0.0,31.9,61.5,999.1,89.8,1.2,2.8,59.2,0.00,23.6,30.5,"19:46:00",1
"19/08/11","20:00",0.0,31.8,62.3,999.1,86.0,1.1,2.1,28.8,0.00,23.7,30.4,"19:57:28",1
"19/08/11","20:10",0.0,31.5,63.7,999.1,64.5,1.0,2.9,63.0,0.00,23.8,30.0,"20:08:00",1
"19/08/11","20:20",0.0,31.3,64.7,999.3,57.7,1.1,3.7,41.6,0.00,23.9,30.0,"20:13:36",1
"19/08/11","20:30",0.0,31.0,66.2,999.3,57.7,1.1,2.4,61.9,0.00,24.0,30.0,"20:20:32",1
"19/08/11","20:40",0.0,30.7,67.1,999.3,51.6,1.0,2.0,59.5,0.00,23.9,30.0,"20:37:20",1
"19/08/11","20:50",0.0,30.6,67.5,999.6,37.1,1.2,2.7,73.2,0.00,23.9,30.0,"20:49:04",1
"19/08/11","21:00",0.0,30.5,67.8,999.3,37.1,0.8,2.5,44.1,0.00,23.9,29.8,"20:50:48",1
"19/08/11","21:10",0.0,30.3,69.1,999.6,65.1,0.7,2.1,70.5,0.00,24.0,29.7,"21:03:20",1
"19/08/11","21:20",0.0,30.3,69.3,999.6,79.6,0.7,2.4,15.7,0.00,24.1,29.5,"21:17:28",1
"19/08/11","21:30",0.0,30.2,69.6,1000.0,47.1,0.5,1.4,44.3,0.00,24.1,29.7,"21:24:24",1
"19/08/11","21:40",0.0,29.9,70.2,999.8,64.5,0.6,2.1,133.3,0.00,23.9,29.5,"21:36:48",1
"19/08/11","21:50",0.0,30.1,69.4,999.8,74.3,0.7,2.2,40.7,0.00,23.9,29.4,"21:48:24",1
"19/08/11","22:00",0.0,29.9,69.3,999.8,85.3,0.7,1.7,36.1,0.00,23.7,29.4,"21:51:20",1
"19/08/11","22:10",0.0,29.7,70.8,1000.0,26.2,0.6,2.2,37.6,0.00,23.9,29.4,"22:00:56",1
"19/08/11","22:20",0.0,29.3,72.3,1000.0,13.6,0.5,1.9,147.1,0.00,23.8,29.2,"22:16:48",1
"19/08/11","22:30",0.0,29.2,71.2,1000.8,119.9,0.7,1.6,151.5,0.00,23.5,29.2,"22:25:52",1
"19/08/11","22:40",0.0,29.6,69.3,1000.3,108.6,1.0,2.0,68.6,0.00,23.4,29.0,"22:31:04",1
"19/08/11","22:50",0.0,29.6,68.7,1000.3,105.5,1.0,2.7,101.0,0.00,23.3,28.9,"22:41:52",1
"19/08/11","23:00",0.0,29.7,69.1,1000.3,95.5,0.7,2.0,117.4,0.00,23.5,29.0,"22:50:32",1
"19/08/11","23:10",0.0,29.4,69.2,1000.0,105.8,1.0,2.8,126.4,0.00,23.2,28.8,"23:09:28",1
"19/08/11","23:20",0.0,29.4,68.0,1000.3,111.7,1.1,2.9,145.7,0.00,22.9,28.8,"23:16:48",1
"19/08/11","23:30",0.0,29.4,68.2,1000.3,98.6,0.8,1.9,93.5,0.00,23.0,28.7,"23:20:16",1
"19/08/11","23:40",0.0,29.4,68.2,1000.3,87.9,1.1,2.2,76.3,0.00,23.0,28.7,"23:30:32",1
"19/08/11","23:50",0.0,29.5,68.5,1000.5,84.8,1.1,2.2,54.4,0.00,23.1,28.7,"23:42:16",1
"19/08/11","24:00",0.0,29.1,71.1,1000.3,41.8,0.7,2.1,71.8,0.00,23.4,28.4,"23:54:48",1
